Weather History for Monarch Pass, CO

Change the Weather History Date:

Thursday, July 25, 2013

  Actual Average (KGUC) Record (KGUC)
Temperature  
Mean Temperature 51 °F -  
Max Temperature 60 °F 76 °F 84 °F (2003)
Min Temperature 42 °F 46 °F 42 °F (1997)
Degree Days  
Heating Degree Days 14    
Growing Degree Days 1 (Base 50)    
Moisture  
Dew Point 42 °F    
Average Humidity 81    
Maximum Humidity 100    
Minimum Humidity 42    
Precipitation  
Precipitation 0.00 in - - ()
Sea Level Pressure  
Sea Level Pressure 30.76 in    
Wind  
Wind Speed 17 mph (West)    
Max Wind Speed 29 mph    
Max Gust Speed 30 mph    
Averages and records for this station are not official NWS values.
T = Trace of Precipitation, MM = Missing Value Source: NWS Daily Summary

Daily Weather History Graph

Daily Weather History Graph

Search for Another Location

Airport:

Trip Planner

Search our weather history database for the weather conditions in past years. The results will help you decide how hot, cold, wet, or windy it might be!

Date:

Astronomy

Jul. 25, 2013 Rise Set
Actual Time 6:01 AM MDT 8:21 PM MDT
Civil Twilight 5:31 AM MDT 8:51 PM MDT
Nautical Twilight 4:54 AM MDT 9:28 PM MDT
Astronomical Twilight 4:13 AM MDT 10:09 PM MDT
Moon 10:07 PM MDT (7/25) 9:30 AM MDT (7/25)
Length of Visible Light 15h 20m
Length of Day
14h 20m
Waning Gibbous, 88% of the Moon is Illuminated
Jul 25
Waning Gibbous
Jul 29
Last Quarter
Aug 6
New
Aug 14
First Quarter
Aug 20
Full

Hourly Weather History & Observations

Time (MDT) Temp. Windchill Dew Point Humidity Pressure Visibility Wind Dir Wind Speed Gust Speed Precip Events Conditions
12:15 AM 46.4 °F 43.5 °F 41.0 °F 81% 30.75 in - SSW 5.8 mph - N/A   Overcast
12:35 AM 44.6 °F 37.8 °F 41.0 °F 87% 30.74 in - SSW 15.0 mph - N/A   Unknown
12:55 AM 46.4 °F 40.1 °F 42.8 °F 87% 30.74 in - SSW 15.0 mph - N/A   Unknown
1:15 AM 44.6 °F 37.2 °F 42.8 °F 93% 30.74 in - SSW 17.3 mph - N/A   Overcast
1:35 AM 44.6 °F 36.6 °F 42.8 °F 93% 30.72 in - SSW 19.6 mph - N/A Thunderstorm Thunderstorm
1:55 AM 44.6 °F 36.4 °F 42.8 °F 93% 30.72 in - SSW 20.7 mph - N/A   Unknown
2:15 AM 44.6 °F 36.9 °F 41.0 °F 87% 30.72 in - SSW 18.4 mph - N/A   Unknown
2:35 AM 44.6 °F 36.9 °F 41.0 °F 87% 30.71 in - SSW 18.4 mph - N/A   Mostly Cloudy
2:55 AM 44.6 °F 36.6 °F 41.0 °F 87% 30.71 in - SSW 19.6 mph - N/A   Unknown
3:15 AM 44.6 °F 37.2 °F 41.0 °F 87% 30.71 in - SW 17.3 mph - N/A   Unknown
3:35 AM 44.6 °F 36.1 °F 41.0 °F 87% 30.71 in - WSW 21.9 mph - N/A   Unknown
3:55 AM 44.6 °F 36.9 °F 41.0 °F 87% 30.71 in - WSW 18.4 mph - N/A   Unknown
4:15 AM 42.8 °F 34.0 °F 41.0 °F 93% 30.70 in - WSW 20.7 mph - N/A   Unknown
4:35 AM 42.8 °F 34.3 °F 41.0 °F 93% 30.69 in - SW 19.6 mph - N/A   Unknown
4:55 AM 42.8 °F 33.5 °F 41.0 °F 93% 30.70 in - WSW 23.0 mph - N/A   Unknown
5:15 AM 44.6 °F 36.6 °F 41.0 °F 87% 30.71 in - West 19.6 mph - N/A   Unknown
5:35 AM 42.8 °F 33.5 °F 41.0 °F 93% 30.72 in - West 23.0 mph 29.9 mph N/A Thunderstorm Thunderstorm
5:55 AM 42.8 °F 33.5 °F 41.0 °F 93% 30.71 in - West 23.0 mph 26.5 mph N/A   Unknown
6:15 AM 42.8 °F 33.1 °F 39.2 °F 87% 30.71 in - West 25.3 mph - N/A   Unknown
6:35 AM 42.8 °F 33.5 °F 39.2 °F 87% 30.71 in - WSW 23.0 mph - N/A   Unknown
6:55 AM 42.8 °F 34.8 °F 41.0 °F 93% 30.72 in - WSW 17.3 mph - N/A   Unknown
7:15 AM 44.6 °F 35.5 °F 41.0 °F 87% 30.70 in - West 25.3 mph - N/A   Unknown
7:35 AM 44.6 °F 38.1 °F 41.0 °F 87% 30.73 in - WNW 13.8 mph - N/A   Unknown
7:55 AM 44.6 °F 36.9 °F 41.0 °F 87% 30.73 in - West 18.4 mph - N/A   Unknown
8:15 AM 44.6 °F 37.4 °F 42.8 °F 93% 30.74 in - WSW 16.1 mph - N/A   Unknown
8:35 AM 44.6 °F 35.9 °F 42.8 °F 93% 30.73 in - West 23.0 mph - N/A   Unknown
8:55 AM 46.4 °F 37.5 °F 42.8 °F 87% 30.74 in - West 27.6 mph - N/A   Unknown
9:15 AM 46.4 °F 37.5 °F 42.8 °F 87% 30.73 in - West 27.6 mph - N/A   Unknown
9:35 AM 46.4 °F 37.4 °F 42.8 °F 87% 30.74 in - WSW 28.8 mph - N/A   Mostly Cloudy
9:55 AM 46.4 °F 38.1 °F 44.6 °F 93% 30.75 in - West 24.2 mph - N/A   Overcast
10:15 AM 48.2 °F - 44.6 °F 87% 30.76 in - West 21.9 mph 28.8 mph N/A   Overcast
10:35 AM 50.0 °F - 44.6 °F 82% 30.76 in - West 16.1 mph 26.5 mph N/A   Overcast
10:55 AM 50.0 °F - 44.6 °F 82% 30.77 in - West 12.7 mph 26.5 mph N/A   Overcast
11:15 AM 50.0 °F - 42.8 °F 76% 30.77 in - West 16.1 mph 23.0 mph N/A   Overcast
11:35 AM 51.8 °F - 44.6 °F 76% 30.77 in - WSW 15.0 mph 23.0 mph N/A   Overcast
11:55 AM 53.6 °F - 44.6 °F 72% 30.78 in - SW 10.4 mph 18.4 mph N/A   Mostly Cloudy
12:15 PM 50.0 °F - 44.6 °F 82% 30.78 in - WSW 15.0 mph 18.4 mph N/A   Overcast
12:35 PM 53.6 °F - 42.8 °F 67% 30.77 in - WNW 9.2 mph 17.3 mph N/A   Mostly Cloudy
12:55 PM 51.8 °F - 44.6 °F 76% 30.77 in - West 17.3 mph - N/A   Mostly Cloudy
1:15 PM 55.4 °F - 44.6 °F 67% 30.77 in - West 18.4 mph - N/A   Scattered Clouds
1:35 PM 53.6 °F - 44.6 °F 72% 30.77 in - West 18.4 mph - N/A   Mostly Cloudy
1:55 PM 51.8 °F - 44.6 °F 76% 30.77 in - WNW 15.0 mph - N/A Thunderstorm Thunderstorm
2:15 PM 53.6 °F - 44.6 °F 72% 30.76 in - West 18.4 mph - N/A Thunderstorm Thunderstorm
2:35 PM 55.4 °F - 41.0 °F 58% 30.77 in - West 17.3 mph - N/A   Overcast
2:55 PM 60.8 °F - 37.4 °F 42% 30.77 in - NW 11.5 mph - N/A   Overcast
3:15 PM 60.8 °F - 37.4 °F 42% 30.77 in - WNW 10.4 mph - N/A   Mostly Cloudy
3:35 PM 59.0 °F - 41.0 °F 51% 30.77 in - Calm Calm - N/A   Overcast
3:55 PM 57.2 °F - 39.2 °F 51% 30.77 in - NNE 4.6 mph - N/A   Mostly Cloudy
4:15 PM 57.2 °F - 41.0 °F 55% 30.77 in - NNW 4.6 mph - N/A   Clear
4:35 PM 60.8 °F - 39.2 °F 45% 30.77 in - West 9.2 mph - N/A   Clear
4:55 PM 60.8 °F - 37.4 °F 42% 30.78 in - NW 4.6 mph - N/A   Clear
5:15 PM 60.8 °F - 37.4 °F 42% 30.79 in - NE 3.5 mph - N/A   Scattered Clouds
5:35 PM 55.4 °F - 41.0 °F 58% 30.76 in - ENE 17.3 mph - N/A   Mostly Cloudy
5:55 PM 53.6 °F - 41.0 °F 62% 30.76 in - ENE 17.3 mph - N/A   Mostly Cloudy
6:15 PM 51.8 °F - 42.8 °F 71% 30.75 in - ENE 23.0 mph - N/A   Scattered Clouds
6:35 PM 50.0 °F - 44.6 °F 82% 30.75 in - ENE 24.2 mph - N/A   Clear
6:55 PM 48.2 °F - 44.6 °F 87% 30.76 in - ENE 25.3 mph - N/A   Unknown
7:15 PM 46.4 °F 37.7 °F 44.6 °F 93% 30.76 in - ENE 26.5 mph - N/A   Overcast
7:35 PM 46.4 °F 37.7 °F 44.6 °F 93% 30.76 in - ENE 26.5 mph - N/A   Overcast
7:55 PM 44.6 °F 35.1 °F 42.8 °F 93% 30.76 in - ENE 27.6 mph - N/A   Overcast
8:15 PM 44.6 °F 35.3 °F 42.8 °F 93% 30.77 in - ENE 26.5 mph - N/A   Overcast
8:35 PM 44.6 °F 35.3 °F 42.8 °F 93% 30.77 in - ENE 26.5 mph - N/A   Overcast
8:55 PM 44.6 °F 35.5 °F 42.8 °F 93% 30.79 in - ENE 25.3 mph - N/A   Overcast
9:16 PM 44.6 °F 35.1 °F 42.8 °F 93% 30.79 in - ENE 27.6 mph - N/A   Overcast
9:36 PM 42.8 °F 33.3 °F 42.8 °F 100% 30.81 in - ENE 24.2 mph - N/A   Overcast
9:56 PM 42.8 °F 33.1 °F 42.8 °F 100% 30.81 in - East 25.3 mph - N/A   Overcast
10:14 PM 42.8 °F 33.8 °F 41.0 °F 93% 30.81 in - ENE 21.9 mph - N/A   Unknown
10:35 PM 42.8 °F 34.3 °F 41.0 °F 93% 30.83 in - ENE 19.6 mph - N/A   Mostly Cloudy
10:55 PM 42.8 °F 35.4 °F 41.0 °F 93% 30.83 in - ENE 15.0 mph - N/A   Unknown
11:15 PM 42.8 °F 36.2 °F 41.0 °F 93% 30.83 in - ENE 12.7 mph - N/A   Unknown
11:35 PM 44.6 °F 38.8 °F 39.2 °F 81% 30.84 in - ENE 11.5 mph - N/A   Clear
11:55 PM 46.4 °F 42.4 °F 37.4 °F 71% 30.84 in - ENE 8.1 mph - N/A   Clear